Newton, KS

10:19 AM CST on November 21, 2019 (GMT -0600)
Newton City County

Weather History for KEWK - August, 2019

Change the Weather History Date:

Thursday, August 8, 2019

  Actual Average Record
Temperature  
Mean Temperature 72 °F -  
Max Temperature 77 °F 85 °F 102 °F (2010)
Min Temperature 66 °F 65 °F 57 °F (1997)
Cooling Degree Days 6    
Growing Degree Days 22 (Base 50)    
Moisture  
Dew Point 67 °F    
Average Humidity 91    
Maximum Humidity 100    
Minimum Humidity 71    
Precipitation  
Precipitation 1.52 in - - ()
Sea Level Pressure  
Sea Level Pressure 29.96 in    
Wind  
Wind Speed 9 mph (ESE)    
Max Wind Speed 18 mph    
Max Gust Speed 28 mph    
Visibility 8 miles    
Events Rain , Thunderstorm    
Averages and records for this station are not official NWS values.
T = Trace of Precipitation, MM = Missing Value Source: NWS Daily Summary

Daily Weather History Graph

Daily Weather History Graph

Search for Another Location

Airport or City:

Astronomy

Aug. 08, 2019 Rise Set
Actual Time 6:37 AM CDT 8:31 PM CDT
Civil Twilight 6:09 AM CDT 8:59 PM CDT
Nautical Twilight 5:34 AM CDT 9:34 PM CDT
Astronomical Twilight 4:56 AM CDT 10:11 PM CDT
Moon 3:08 PM CDT (8/8) 1:00 AM CDT (8/8)
Length of Visible Light 14h 50m
Length of Day
13h 53m
First Quarter, 60% of the Moon is Illuminated
Aug 8
First Quarter
Aug 15
Full
Aug 23
Last Quarter
Aug 30
New
Sep 5
First Quarter

Hourly Weather History & Observations

Time (CDT) Temp. Dew Point Humidity Pressure Visibility Wind Dir Wind Speed Gust Speed Precip Events Conditions
12:04 AM 73.4 °F 69.8 °F 88% 29.93 in 10.0 mi NNE 5.8 mph - N/A Thunderstorm Partly Cloudy
12:44 AM 73.4 °F 69.8 °F 88% 29.92 in 10.0 mi Variable 5.8 mph - 0.01 in Rain , Thunderstorm Light Rain
12:52 AM 73.4 °F 68.0 °F 83% 29.93 in 10.0 mi Calm Calm - 0.01 in Rain Light Rain
12:56 AM 73.0 °F 68.0 °F 84% 29.88 in 10.0 mi SSE 6.9 mph - 0.01 in Rain Light Rain
12:58 AM 73.4 °F 68.0 °F 83% 29.92 in 10.0 mi SE 8.1 mph - 0.00 in Rain , Thunderstorm Light Rain
1:07 AM 73.4 °F 69.8 °F 88% 29.91 in 9.0 mi SE 11.5 mph - 0.00 in Rain , Thunderstorm Light Rain
1:38 AM 71.6 °F 69.8 °F 94% 29.91 in 10.0 mi SE 10.4 mph - 0.00 in Rain Light Rain
1:54 AM 71.6 °F 69.8 °F 94% 29.92 in 10.0 mi Variable 4.6 mph - 0.01 in Rain , Thunderstorm Light Rain
1:56 AM 72.0 °F 69.1 °F 91% 29.87 in 10.0 mi ENE 5.8 mph - 0.01 in Rain , Thunderstorm Light Rain
2:20 AM 71.6 °F 68.0 °F 88% 29.90 in 10.0 mi East 8.1 mph - 0.01 in Rain , Thunderstorm Light Rain
2:51 AM 71.6 °F 68.0 °F 88% 29.89 in 10.0 mi ESE 11.5 mph - 0.01 in   Clear
2:56 AM 71.1 °F 68.0 °F 90% 29.83 in 10.0 mi ESE 11.5 mph - 0.01 in   Clear
3:56 AM 71.1 °F 69.1 °F 93% 29.84 in 10.0 mi East 8.1 mph - N/A   Partly Cloudy
4:43 AM 73.4 °F 71.6 °F 94% 29.94 in 10.0 mi NE 16.1 mph 21.9 mph N/A   Overcast
4:56 AM 73.0 °F 71.1 °F 93% 29.89 in 10.0 mi ENE 13.8 mph 26.5 mph N/A   Overcast
5:09 AM 71.6 °F 69.8 °F 94% 29.93 in 10.0 mi East 18.4 mph 24.2 mph N/A   Overcast
5:17 AM 71.6 °F 69.8 °F 94% 29.92 in 10.0 mi East 18.4 mph 27.6 mph N/A Thunderstorm Overcast
5:56 AM 68.0 °F 66.0 °F 93% 29.88 in 10.0 mi East 11.5 mph 23.0 mph 0.21 in Rain , Thunderstorm Light Thunderstorms and Rain
6:09 AM 68.0 °F 66.2 °F 94% 29.95 in 10.0 mi ESE 18.4 mph 23.0 mph 0.00 in Thunderstorm Overcast
6:18 AM 66.2 °F 66.2 °F 100% 29.95 in 10.0 mi ESE 15.0 mph 25.3 mph 0.00 in   Overcast
6:56 AM 68.0 °F 66.0 °F 93% 29.96 in 10.0 mi East 11.5 mph - 0.00 in   Overcast
7:17 AM 68.0 °F 66.2 °F 94% 30.01 in 2.5 mi East 6.9 mph - 0.13 in Rain , Thunderstorm Heavy Rain
7:19 AM 68.0 °F 66.2 °F 94% 30.02 in 1.8 mi ENE 6.9 mph - 0.18 in Rain , Thunderstorm Heavy Rain
7:26 AM 68.0 °F 66.2 °F 94% 30.04 in 0.8 mi NNE 8.1 mph - 0.54 in Rain , Thunderstorm Heavy Rain
7:38 AM 66.2 °F 66.2 °F 100% 30.05 in 1.2 mi NE 4.6 mph - 0.80 in Rain , Thunderstorm Heavy Thunderstorms and Rain
7:40 AM 66.2 °F 66.2 °F 100% 30.05 in 1.2 mi NE 5.8 mph - 0.82 in Rain Heavy Rain
7:48 AM 66.2 °F 66.2 °F 100% 30.05 in 1.5 mi Variable 4.6 mph - 0.93 in Rain , Thunderstorm Heavy Thunderstorms and Rain
7:56 AM 68.0 °F 66.9 °F 96% 30.01 in 1.8 mi ESE 11.5 mph - 1.02 in Rain , Thunderstorm Heavy Thunderstorms and Rain
8:02 AM 68.0 °F 66.2 °F 94% 30.04 in 2.5 mi East 10.4 mph - 0.04 in Rain Heavy Rain
8:07 AM 68.0 °F 66.2 °F 94% 30.04 in 1.8 mi ESE 13.8 mph - 0.15 in Rain , Thunderstorm Heavy Rain
8:11 AM 68.0 °F 66.2 °F 94% 30.04 in 2.0 mi SE 12.7 mph - 0.17 in Rain , Thunderstorm Rain
8:14 AM 68.0 °F 66.2 °F 94% 30.03 in 3.0 mi ESE 13.8 mph - 0.18 in Rain , Thunderstorm Rain
8:20 AM 68.0 °F 66.2 °F 94% 30.02 in 5.0 mi ESE 13.8 mph - 0.21 in Rain , Thunderstorm Rain
8:26 AM 68.0 °F 66.2 °F 94% 30.02 in 7.0 mi SE 13.8 mph - 0.22 in Rain , Thunderstorm Light Rain
8:41 AM 66.2 °F 66.2 °F 100% 30.05 in 9.0 mi SSE 15.0 mph - 0.24 in Rain Light Rain
8:56 AM 66.0 °F 66.0 °F 100% 30.00 in 10.0 mi SE 16.1 mph 24.2 mph 0.26 in Rain Light Rain
10:47 AM 66.2 °F 66.2 °F 100% 30.00 in 10.0 mi SSE 16.1 mph 23.0 mph 0.00 in   Mostly Cloudy
10:56 AM 66.9 °F 66.0 °F 97% 29.97 in 10.0 mi South 12.7 mph 25.3 mph 0.00 in   Scattered Clouds
11:56 AM 68.0 °F 66.0 °F 93% 29.96 in 10.0 mi SSW 6.9 mph - 0.00 in   Overcast
12:56 PM 71.1 °F 66.9 °F 87% 29.96 in 10.0 mi West 8.1 mph - N/A   Overcast
1:56 PM 71.1 °F 66.0 °F 84% 29.95 in 10.0 mi West 8.1 mph - N/A   Overcast
2:56 PM 72.0 °F 66.9 °F 84% 29.96 in 10.0 mi NNW 4.6 mph - 0.00 in Rain Light Rain
3:56 PM 75.0 °F 66.9 °F 76% 29.95 in 10.0 mi North 5.8 mph - 0.00 in   Overcast
4:56 PM 77.0 °F 66.9 °F 71% 29.93 in 10.0 mi East 3.5 mph - N/A   Clear
5:56 PM 77.0 °F 68.0 °F 74% 29.92 in 10.0 mi East 6.9 mph - N/A   Partly Cloudy
6:56 PM 75.9 °F 68.0 °F 76% 29.94 in 10.0 mi ESE 6.9 mph - N/A   Clear
8:56 PM 71.1 °F 66.9 °F 87% 29.96 in 10.0 mi SSE 4.6 mph - N/A   Clear
9:56 PM 69.1 °F 68.0 °F 96% 29.97 in 10.0 mi Calm Calm - N/A   Clear
11:56 PM 68.0 °F 66.9 °F 96% 29.96 in 10.0 mi Calm Calm - N/A   Clear